Location: Newark
(41.9364°N, 2.8061°E)
Time: 17:03:35
(UTC+00:00)

N. Korean satellite - Visible Passes

Search period start: 30 September 2022 00:00
Search period end: 10 October 2022 00:00
Orbit: 427 x 468 km, 97.3° (Epoch: 29 September)

Date Brightness Start Highest point End Pass type
(mag) Time Alt. Az. Time Alt. Az. Time Alt. Az.
01 Oct 7.2 04:52:57 10° NNE 04:56:10 52° E 04:59:21 10° S visible
02 Oct 9.5 04:18:00 10° NE 04:20:13 17° E 04:22:26 10° SE visible
03 Oct 6.2 05:13:57 10° N 05:17:12 73° WNW 05:20:27 10° SSW visible
04 Oct 8.3 04:38:19 10° NNE 04:41:18 31° E 04:44:15 10° SSE visible
05 Oct 9.9 04:04:15 10° ENE 04:05:10 11° E 04:06:05 10° ESE visible
06 Oct 6.8 04:58:54 10° NNE 05:02:09 65° E 05:05:24 10° S visible
07 Oct 9.2 04:23:33 10° NE 04:26:04 20° E 04:28:33 10° SE visible
08 Oct 6.3 05:19:34 10° N 05:22:48 60° WNW 05:26:02 10° SSW visible
09 Oct 8.0 04:43:38 10° NNE 04:46:44 37° E 04:49:48 10° SSE visible
